Time,TemperatureF,DewpointF,PressureIn,WindDirection,WindDirectionDegrees,WindSpeedMPH,WindSpeedGustMPH,Humidity,HourlyPrecipIn,Conditions,Clouds,dailyrainin,SoftwareType,DateUTC
2013-09-18 00:02:00,71.9,61.6,29.21,SW,225,0.1,2.0,70,-99.99,,,-99.99,WSDL version 426,2013-09-18 05:02:00,
2013-09-18 00:07:00,71.5,61.5,29.21,SW,225,0.0,1.3,71,-99.99,,,-99.99,WSDL version 426,2013-09-18 05:07:00,
2013-09-18 00:12:00,71.5,62.0,29.21,South,169,0.0,1.3,74,-99.99,,,-99.99,WSDL version 426,2013-09-18 05:12:00,
2013-09-18 00:17:00,71.9,63.0,29.23,SW,215,0.0,1.3,73,-99.99,,,-99.99,WSDL version 426,2013-09-18 05:17:00,
2013-09-18 00:22:00,71.8,62.0,29.23,SW,225,0.0,1.3,71,-99.99,,,-99.99,WSDL version 426,2013-09-18 05:22:00,
2013-09-18 00:27:00,71.3,61.5,29.23,SW,225,0.0,0.0,71,-99.99,,,-99.99,WSDL version 426,2013-09-18 05:27:00,
2013-09-18 00:32:00,71.2,61.8,29.21,SW,225,0.0,0.0,72,-99.99,,,-99.99,WSDL version 426,2013-09-18 05:32:00,
2013-09-18 00:36:00,71.3,62.3,29.21,SSW,211,1.5,2.2,75,-99.99,,,-99.99,WSDL version 426,2013-09-18 05:36:00,
2013-09-18 00:41:00,71.7,63.0,29.21,SSW,200,0.4,2.2,73,-99.99,,,-99.99,WSDL version 426,2013-09-18 05:41:00,
2013-09-18 00:46:00,71.4,62.2,29.21,South,180,0.4,2.0,72,-99.99,,,-99.99,WSDL version 426,2013-09-18 05:46:00,
2013-09-18 00:51:00,71.2,61.7,29.21,SSE,158,1.2,2.2,73,-99.99,,,-99.99,WSDL version 426,2013-09-18 05:51:00,
2013-09-18 00:56:00,70.9,61.8,29.21,SSE,158,1.8,2.5,73,-99.99,,,-99.99,WSDL version 426,2013-09-18 05:56:00,
2013-09-18 01:01:00,70.9,62.0,29.21,South,188,1.9,2.9,75,-99.99,,,-99.99,WSDL version 426,2013-09-18 06:01:00,
2013-09-18 01:06:00,71.3,63.7,29.21,SSW,198,1.3,2.9,77,-99.99,,,-99.99,WSDL version 426,2013-09-18 06:06:00,
2013-09-18 01:11:00,71.2,63.4,29.21,South,180,1.8,2.5,76,-99.99,,,-99.99,WSDL version 426,2013-09-18 06:11:00,
2013-09-18 01:16:00,70.9,62.7,29.21,South,180,1.3,2.5,76,-99.99,,,-99.99,WSDL version 426,2013-09-18 06:16:00,
2013-09-18 01:21:00,70.7,62.6,29.21,South,174,0.6,2.5,75,-99.99,,,-99.99,WSDL version 426,2013-09-18 06:21:00,
2013-09-18 01:26:00,70.7,62.5,29.21,SSE,158,1.7,2.9,76,-99.99,,,-99.99,WSDL version 426,2013-09-18 06:26:00,
2013-09-18 01:31:00,70.7,62.6,29.21,SSE,158,1.8,2.9,76,-99.99,,,-99.99,WSDL version 426,2013-09-18 06:31:00,
2013-09-18 01:36:00,70.8,63.2,29.21,South,172,1.5,2.7,79,-99.99,,,-99.99,WSDL version 426,2013-09-18 06:36:00,
2013-09-18 01:41:00,71.5,64.5,29.21,South,173,1.8,2.7,79,-99.99,,,-99.99,WSDL version 426,2013-09-18 06:41:00,
2013-09-18 01:46:00,71.3,63.9,29.21,SSE,158,1.8,3.1,77,-99.99,,,-99.99,WSDL version 426,2013-09-18 06:46:00,
2013-09-18 01:51:00,71.1,63.5,29.21,SSE,158,1.8,3.1,77,-99.99,,,-99.99,WSDL version 426,2013-09-18 06:51:00,
2013-09-18 01:56:00,70.9,63.3,29.21,SE,146,1.7,2.7,77,-99.99,,,-99.99,WSDL version 426,2013-09-18 06:56:00,
2013-09-18 02:01:00,70.9,63.3,29.21,SSE,150,1.3,2.9,77,-99.99,,,-99.99,WSDL version 426,2013-09-18 07:01:00,
2013-09-18 02:06:00,70.9,63.3,29.21,SSE,163,1.6,3.1,77,-99.99,,,-99.99,WSDL version 426,2013-09-18 07:06:00,
2013-09-18 02:11:00,70.9,63.4,29.21,SSE,155,2.0,3.6,78,-99.99,,,-99.99,WSDL version 426,2013-09-18 07:11:00,
2013-09-18 02:16:00,70.9,63.7,29.21,South,188,2.2,3.6,78,-99.99,,,-99.99,WSDL version 426,2013-09-18 07:16:00,
2013-09-18 02:21:00,71.3,64.5,29.21,SSE,155,2.3,4.0,79,-99.99,,,-99.99,WSDL version 426,2013-09-18 07:21:00,
2013-09-18 02:26:00,71.2,64.2,29.21,SSE,168,2.3,4.0,78,-99.99,,,-99.99,WSDL version 426,2013-09-18 07:26:00,
2013-09-18 02:31:00,71.2,64.0,29.21,SSE,160,1.6,4.0,78,-99.99,,,-99.99,WSDL version 426,2013-09-18 07:31:00,
2013-09-18 02:36:00,71.2,64.0,29.21,SSE,158,2.2,4.0,78,-99.99,,,-99.99,WSDL version 426,2013-09-18 07:36:00,
2013-09-18 02:41:00,71.2,64.0,29.21,SSE,153,2.2,3.4,78,-99.99,,,-99.99,WSDL version 426,2013-09-18 07:41:00,
2013-09-18 02:46:00,71.2,64.0,29.21,SSE,158,2.7,4.3,78,-99.99,,,-99.99,WSDL version 426,2013-09-18 07:46:00,
2013-09-18 02:51:00,71.4,64.5,29.21,SSE,160,2.9,4.3,79,-99.99,,,-99.99,WSDL version 426,2013-09-18 07:51:00,
2013-09-18 02:56:00,71.5,64.7,29.21,SSE,155,2.3,4.0,79,-99.99,,,-99.99,WSDL version 426,2013-09-18 07:56:00,
2013-09-18 03:01:00,72.1,65.2,29.21,SSE,168,2.9,4.7,78,-99.99,,,-99.99,WSDL version 426,2013-09-18 08:01:00,
2013-09-18 03:06:00,72.4,65.0,29.21,SSE,163,2.9,4.7,77,-99.99,,,-99.99,WSDL version 426,2013-09-18 08:06:00,
2013-09-18 03:11:00,72.2,64.6,29.21,SE,145,2.3,4.7,77,-99.99,,,-99.99,WSDL version 426,2013-09-18 08:11:00,
2013-09-18 03:16:00,72.1,64.2,29.21,SSE,150,2.4,4.0,76,-99.99,,,-99.99,WSDL version 426,2013-09-18 08:16:00,
2013-09-18 03:21:00,72.1,64.5,29.21,SSE,155,1.8,3.6,77,-99.99,,,-99.99,WSDL version 426,2013-09-18 08:21:00,
2013-09-18 03:26:00,72.1,64.5,29.21,SSE,148,1.7,2.9,77,-99.99,,,-99.99,WSDL version 426,2013-09-18 08:26:00,
2013-09-18 03:31:00,72.1,64.5,29.21,SE,132,2.3,3.6,77,-99.99,,,-99.99,WSDL version 426,2013-09-18 08:31:00,
2013-09-18 03:36:00,72.3,64.7,29.21,SE,138,2.5,5.4,77,-99.99,,,-99.99,WSDL version 426,2013-09-18 08:36:00,
2013-09-18 03:41:00,72.5,65.1,29.21,SE,143,2.6,5.4,78,-99.99,,,-99.99,WSDL version 426,2013-09-18 08:41:00,
2013-09-18 03:46:00,73.0,65.6,29.21,ESE,123,2.2,5.4,77,-99.99,,,-99.99,WSDL version 426,2013-09-18 08:46:00,
2013-09-18 03:51:00,72.9,65.0,29.21,SSE,155,2.2,5.4,76,-99.99,,,-99.99,WSDL version 426,2013-09-18 08:51:00,
2013-09-18 03:56:00,72.8,64.8,29.21,SSE,168,2.9,5.8,76,-99.99,,,-99.99,WSDL version 426,2013-09-18 08:56:00,
2013-09-18 04:01:00,72.7,64.7,29.21,SSE,153,3.3,5.8,77,-99.99,,,-99.99,WSDL version 426,2013-09-18 09:01:00,
2013-09-18 04:06:00,72.7,65.1,29.21,SSE,152,3.6,5.8,77,-99.99,,,-99.99,WSDL version 426,2013-09-18 09:06:00,
2013-09-18 04:11:00,72.7,65.1,29.21,SSE,153,2.4,5.8,77,-99.99,,,-99.99,WSDL version 426,2013-09-18 09:11:00,
2013-09-18 04:16:00,72.7,65.1,29.21,SSE,155,2.8,5.6,77,-99.99,,,-99.99,WSDL version 426,2013-09-18 09:16:00,
2013-09-18 04:21:00,72.9,65.5,29.21,SSE,165,1.8,5.6,77,-99.99,,,-99.99,WSDL version 426,2013-09-18 09:21:00,
2013-09-18 04:26:00,73.4,65.5,29.21,SE,138,2.2,4.0,76,-99.99,,,-99.99,WSDL version 426,2013-09-18 09:26:00,
2013-09-18 04:31:00,73.2,65.1,29.21,SE,138,1.7,3.4,76,-99.99,,,-99.99,WSDL version 426,2013-09-18 09:31:00,
2013-09-18 04:36:00,72.9,64.7,29.21,SSE,155,0.7,3.4,76,-99.99,,,-99.99,WSDL version 426,2013-09-18 09:36:00,
2013-09-18 04:41:00,72.8,64.4,29.21,SSE,155,1.1,3.4,75,-99.99,,,-99.99,WSDL version 426,2013-09-18 09:41:00,
2013-09-18 04:46:00,72.7,64.7,29.21,ESE,123,0.5,3.4,76,-99.99,,,-99.99,WSDL version 426,2013-09-18 09:46:00,
2013-09-18 04:51:00,72.7,64.7,29.21,SE,141,1.5,3.1,76,-99.99,,,-99.99,WSDL version 426,2013-09-18 09:51:00,
2013-09-18 04:56:00,72.6,64.7,29.21,SSE,165,1.8,3.1,77,-99.99,,,-99.99,WSDL version 426,2013-09-18 09:56:00,
2013-09-18 05:01:00,73.2,65.6,29.21,SSE,163,1.3,2.7,76,-99.99,,,-99.99,WSDL version 426,2013-09-18 10:01:00,
2013-09-18 05:07:00,73.4,65.0,29.21,SE,135,1.7,2.5,75,-99.99,,,-99.99,WSDL version 426,2013-09-18 10:07:00,
2013-09-18 05:12:00,73.0,64.6,29.21,SE,135,0.6,2.5,75,-99.99,,,-99.99,WSDL version 426,2013-09-18 10:12:00,
2013-09-18 05:17:00,72.8,64.4,29.21,SE,130,0.1,2.0,75,-99.99,,,-99.99,WSDL version 426,2013-09-18 10:17:00,
2013-09-18 05:22:00,72.7,64.3,29.21,ESE,113,0.0,1.6,75,-99.99,,,-99.99,WSDL version 426,2013-09-18 10:22:00,
2013-09-18 05:27:00,72.5,64.2,29.21,SSE,161,0.7,4.0,75,-99.99,,,-99.99,WSDL version 426,2013-09-18 10:27:00,
2013-09-18 05:32:00,72.6,64.5,29.21,South,188,1.6,4.0,77,-99.99,,,-99.99,WSDL version 426,2013-09-18 10:32:00,
2013-09-18 05:37:00,73.0,65.4,29.21,SE,145,2.6,4.7,77,-99.99,,,-99.99,WSDL version 426,2013-09-18 10:37:00,
2013-09-18 05:42:00,72.9,64.9,29.21,SSE,150,3.1,4.9,76,-99.99,,,-99.99,WSDL version 426,2013-09-18 10:42:00,
2013-09-18 05:47:00,72.8,64.8,29.21,SSE,155,3.4,5.4,76,-99.99,,,-99.99,WSDL version 426,2013-09-18 10:47:00,
2013-09-18 05:52:00,72.7,64.7,29.21,SSE,155,2.7,5.4,76,-99.99,,,-99.99,WSDL version 426,2013-09-18 10:52:00,
2013-09-18 05:57:00,72.7,64.7,29.21,SSE,160,1.0,5.4,76,-99.99,,,-99.99,WSDL version 426,2013-09-18 10:57:00,
2013-09-18 06:02:00,72.7,64.7,29.21,SE,135,2.1,4.0,76,-99.99,,,-99.99,WSDL version 426,2013-09-18 11:02:00,
2013-09-18 06:07:00,72.6,64.6,29.21,ESE,118,2.2,3.4,76,-99.99,,,-99.99,WSDL version 426,2013-09-18 11:07:00,
2013-09-18 06:12:00,72.5,64.6,29.21,SSE,149,1.3,3.4,77,-99.99,,,-99.99,WSDL version 426,2013-09-18 11:12:00,
2013-09-18 06:17:00,72.4,64.8,29.21,SSE,158,1.9,2.9,77,-99.99,,,-99.99,WSDL version 426,2013-09-18 11:17:00,
2013-09-18 06:22:00,72.3,64.7,29.21,South,177,2.5,3.4,77,-99.99,,,-99.99,WSDL version 426,2013-09-18 11:22:00,
2013-09-18 06:27:00,72.1,64.9,29.21,SSE,160,2.3,3.8,78,-99.99,,,-99.99,WSDL version 426,2013-09-18 11:27:00,
2013-09-18 06:32:00,72.1,64.9,29.21,SE,135,1.1,3.8,78,-99.99,,,-99.99,WSDL version 426,2013-09-18 11:32:00,
2013-09-18 06:37:00,72.0,64.9,29.21,SSE,152,2.1,3.1,79,-99.99,,,-99.99,WSDL version 426,2013-09-18 11:37:00,
2013-09-18 06:42:00,72.0,65.1,29.21,SE,140,1.6,3.6,79,-99.99,,,-99.99,WSDL version 426,2013-09-18 11:42:00,
2013-09-18 06:47:00,72.0,65.1,29.21,SE,135,1.3,3.6,79,-99.99,,,-99.99,WSDL version 426,2013-09-18 11:47:00,
2013-09-18 06:52:00,71.8,65.0,29.21,SSE,158,0.0,2.9,79,-99.99,,,-99.99,WSDL version 426,2013-09-18 11:52:00,
2013-09-18 06:57:00,71.8,64.9,29.21,SE,146,1.8,3.1,79,-99.99,,,-99.99,WSDL version 426,2013-09-18 11:57:00,
2013-09-18 07:02:00,71.7,64.8,29.21,SE,135,1.9,3.1,79,-99.99,,,-99.99,WSDL version 426,2013-09-18 12:02:00,
2013-09-18 07:07:00,71.6,64.7,29.21,SE,135,0.9,2.9,79,-99.99,,,-99.99,WSDL version 426,2013-09-18 12:07:00,
2013-09-18 07:12:00,71.6,64.7,29.21,SSE,158,1.6,3.4,79,-99.99,,,-99.99,WSDL version 426,2013-09-18 12:12:00,
2013-09-18 07:17:00,71.6,64.7,29.21,SSE,160,1.8,3.4,79,-99.99,,,-99.99,WSDL version 426,2013-09-18 12:17:00,
2013-09-18 07:22:00,71.6,65.0,29.21,SSE,163,2.0,3.4,80,-99.99,,,-99.99,WSDL version 426,2013-09-18 12:22:00,
2013-09-18 07:27:00,71.8,65.3,29.21,SSE,163,2.7,4.3,80,-99.99,,,-99.99,WSDL version 426,2013-09-18 12:27:00,
2013-09-18 07:32:00,71.9,65.4,29.21,South,180,2.9,4.3,80,-99.99,,,-99.99,WSDL version 426,2013-09-18 12:32:00,
2013-09-18 07:37:00,72.1,65.6,29.21,SE,145,2.1,4.3,80,-99.99,,,-99.99,WSDL version 426,2013-09-18 12:37:00,
2013-09-18 07:42:00,72.2,65.7,29.21,South,169,2.8,3.8,80,-99.99,,,-99.99,WSDL version 426,2013-09-18 12:42:00,
2013-09-18 07:47:00,72.4,65.9,29.23,South,177,2.1,3.8,80,-99.99,,,-99.99,WSDL version 426,2013-09-18 12:47:00,
2013-09-18 07:52:00,72.6,66.0,29.23,SSE,165,3.5,5.4,80,-99.99,,,-99.99,WSDL version 426,2013-09-18 12:52:00,
2013-09-18 07:57:00,72.7,66.2,29.23,SSE,155,2.5,5.4,80,-99.99,,,-99.99,WSDL version 426,2013-09-18 12:57:00,
2013-09-18 08:02:00,72.9,66.0,29.23,SSE,152,3.0,4.7,79,-99.99,,,-99.99,WSDL version 426,2013-09-18 13:02:00,
2013-09-18 08:07:00,73.0,66.1,29.23,SSE,158,2.3,4.7,79,-99.99,,,-99.99,WSDL version 426,2013-09-18 13:07:00,
2013-09-18 08:12:00,73.1,66.2,29.23,SE,135,2.4,4.7,79,-99.99,,,-99.99,WSDL version 426,2013-09-18 13:12:00,
2013-09-18 08:17:00,73.3,66.3,29.23,SSE,160,3.2,4.7,78,-99.99,,,-99.99,WSDL version 426,2013-09-18 13:17:00,
2013-09-18 08:23:00,73.5,66.2,29.23,SSE,163,2.5,4.5,78,-99.99,,,-99.99,WSDL version 426,2013-09-18 13:23:00,
2013-09-18 08:28:00,73.7,66.4,29.23,SSE,152,3.0,4.3,78,-99.99,,,-99.99,WSDL version 426,2013-09-18 13:28:00,
2013-09-18 08:34:00,74.1,66.4,29.23,SSE,160,3.0,4.9,77,-99.99,,,-99.99,WSDL version 426,2013-09-18 13:34:00,
2013-09-18 08:39:00,74.4,66.6,29.23,SE,146,3.1,6.5,76,-99.99,,,-99.99,WSDL version 426,2013-09-18 13:39:00,
2013-09-18 08:44:00,74.7,66.5,29.23,SSE,149,3.6,6.5,75,-99.99,,,-99.99,WSDL version 426,2013-09-18 13:44:00,
2013-09-18 08:49:00,74.8,66.1,29.23,SSE,166,3.7,5.4,74,-99.99,,,-99.99,WSDL version 426,2013-09-18 13:49:00,
2013-09-18 08:54:00,75.0,65.9,29.23,SSE,165,3.5,5.6,73,-99.99,,,-99.99,WSDL version 426,2013-09-18 13:54:00,
2013-09-18 09:00:00,75.1,65.8,29.23,SSE,158,3.4,5.6,73,-99.99,,,-99.99,WSDL version 426,2013-09-18 14:00:00,
2013-09-18 09:05:00,75.2,65.8,29.23,SE,145,3.0,4.7,73,-99.99,,,-99.99,WSDL version 426,2013-09-18 14:05:00,
2013-09-18 09:10:00,75.5,66.1,29.23,SSE,152,3.1,4.7,72,-99.99,,,-99.99,WSDL version 426,2013-09-18 14:10:00,
2013-09-18 09:15:00,75.8,66.2,29.23,SSE,165,3.9,4.9,72,-99.99,,,-99.99,WSDL version 426,2013-09-18 14:15:00,
2013-09-18 09:20:00,76.1,66.1,29.23,SSE,166,2.8,7.4,71,-99.99,,,-99.99,WSDL version 426,2013-09-18 14:20:00,
2013-09-18 09:25:00,76.3,65.9,29.23,SSE,150,3.6,7.4,70,-99.99,,,-99.99,WSDL version 426,2013-09-18 14:25:00,
2013-09-18 09:30:00,76.5,65.7,29.23,SSE,158,2.7,5.6,69,-99.99,,,-99.99,WSDL version 426,2013-09-18 14:30:00,
2013-09-18 09:35:00,76.8,65.4,29.26,SSE,163,5.5,8.7,66,-99.99,,,-99.99,WSDL version 426,2013-09-18 14:35:00,
2013-09-18 09:40:00,77.0,64.6,29.26,SSE,153,6.9,10.3,65,-99.99,,,-99.99,WSDL version 426,2013-09-18 14:40:00,
2013-09-18 09:45:00,77.2,64.5,29.26,South,177,5.1,10.3,65,-99.99,,,-99.99,WSDL version 426,2013-09-18 14:45:00,
2013-09-18 09:50:00,77.2,64.8,29.26,SSE,153,5.4,8.5,65,-99.99,,,-99.99,WSDL version 426,2013-09-18 14:50:00,
2013-09-18 09:56:00,77.3,64.6,29.26,SSE,149,5.0,8.7,65,-99.99,,,-99.99,WSDL version 426,2013-09-18 14:56:00,
2013-09-18 10:01:00,77.7,65.0,29.26,SSE,150,4.9,8.7,65,-99.99,,,-99.99,WSDL version 426,2013-09-18 15:01:00,
2013-09-18 10:07:00,78.2,64.9,29.26,SSE,160,5.4,7.8,64,-99.99,,,-99.99,WSDL version 426,2013-09-18 15:07:00,
2013-09-18 10:12:00,78.4,64.3,29.26,SSE,153,8.2,9.4,60,-99.99,,,-99.99,WSDL version 426,2013-09-18 15:12:00,
2013-09-18 10:17:00,78.7,63.6,29.26,SSE,155,5.0,10.1,60,-99.99,,,-99.99,WSDL version 426,2013-09-18 15:17:00,
2013-09-18 10:23:00,78.9,63.2,29.26,SE,146,6.5,10.1,59,-99.99,,,-99.99,WSDL version 426,2013-09-18 15:23:00,
2013-09-18 10:28:00,79.5,63.5,29.26,SSE,158,6.4,12.1,58,-99.99,,,-99.99,WSDL version 426,2013-09-18 15:28:00,
2013-09-18 10:33:00,80.3,64.5,29.26,SSE,150,5.6,12.1,58,-99.99,,,-99.99,WSDL version 426,2013-09-18 15:33:00,
2013-09-18 10:38:00,81.3,63.8,29.26,South,177,4.5,8.5,54,-99.99,,,-99.99,WSDL version 426,2013-09-18 15:38:00,
2013-09-18 10:43:00,81.7,62.9,29.26,South,178,5.9,8.7,53,-99.99,,,-99.99,WSDL version 426,2013-09-18 15:43:00,
2013-09-18 10:48:00,81.9,62.5,29.26,SSE,149,6.6,8.7,52,-99.99,,,-99.99,WSDL version 426,2013-09-18 15:48:00,
2013-09-18 10:53:00,82.1,62.2,29.26,South,170,5.9,11.0,51,-99.99,,,-99.99,WSDL version 426,2013-09-18 15:53:00,
2013-09-18 10:58:00,82.8,62.7,29.26,South,185,5.2,11.0,50,-99.99,,,-99.99,WSDL version 426,2013-09-18 15:58:00,
2013-09-18 11:02:00,83.6,63.5,29.26,SSE,160,5.4,9.4,51,-99.99,,,-99.99,WSDL version 426,2013-09-18 16:02:00,
2013-09-18 11:07:00,84.2,62.5,29.26,South,170,6.8,15.4,47,-99.99,,,-99.99,WSDL version 426,2013-09-18 16:07:00,
2013-09-18 11:12:00,84.1,61.3,29.26,South,188,5.8,15.4,46,-99.99,,,-99.99,WSDL version 426,2013-09-18 16:12:00,
2013-09-18 11:17:00,84.4,61.5,29.26,South,188,3.9,13.9,47,-99.99,,,-99.99,WSDL version 426,2013-09-18 16:17:00,
2013-09-18 11:22:00,84.9,62.5,29.26,SSW,203,4.5,9.6,47,-99.99,,,-99.99,WSDL version 426,2013-09-18 16:22:00,
2013-09-18 11:27:00,85.3,61.6,29.26,South,186,6.8,11.0,44,-99.99,,,-99.99,WSDL version 426,2013-09-18 16:27:00,
2013-09-18 11:32:00,85.6,60.3,29.23,South,180,7.3,12.1,43,-99.99,,,-99.99,WSDL version 426,2013-09-18 16:32:00,
2013-09-18 11:37:00,85.7,60.1,29.23,SSE,167,6.9,12.1,42,-99.99,,,-99.99,WSDL version 426,2013-09-18 16:37:00,
2013-09-18 11:42:00,86.0,60.4,29.23,SE,143,6.4,12.3,42,-99.99,,,-99.99,WSDL version 426,2013-09-18 16:42:00,
2013-09-18 11:47:00,86.5,60.3,29.23,SE,135,6.8,12.8,42,-99.99,,,-99.99,WSDL version 426,2013-09-18 16:47:00,
2013-09-18 11:52:00,86.6,59.9,29.23,South,169,7.0,12.8,41,-99.99,,,-99.99,WSDL version 426,2013-09-18 16:52:00,
2013-09-18 11:58:00,87.1,60.2,29.23,SSE,158,6.9,11.0,40,-99.99,,,-99.99,WSDL version 426,2013-09-18 16:58:00,
2013-09-18 12:03:00,87.6,59.8,29.23,SSE,163,6.3,10.7,39,-99.99,,,-99.99,WSDL version 426,2013-09-18 17:03:00,
2013-09-18 12:09:00,87.3,59.8,29.23,South,180,7.2,12.8,39,-99.99,,,-99.99,WSDL version 426,2013-09-18 17:09:00,
2013-09-18 12:14:00,87.2,59.8,29.23,South,174,6.4,12.8,40,-99.99,,,-99.99,WSDL version 426,2013-09-18 17:14:00,
2013-09-18 12:19:00,87.5,60.2,29.23,South,186,5.5,8.7,40,-99.99,,,-99.99,WSDL version 426,2013-09-18 17:19:00,
2013-09-18 12:24:00,87.6,59.7,29.23,South,190,6.2,10.3,39,-99.99,,,-99.99,WSDL version 426,2013-09-18 17:24:00,
2013-09-18 12:29:00,87.8,60.1,29.23,SSE,166,5.1,10.3,39,-99.99,,,-99.99,WSDL version 426,2013-09-18 17:29:00,
2013-09-18 12:34:00,87.9,59.5,29.23,South,170,8.1,13.0,39,-99.99,,,-99.99,WSDL version 426,2013-09-18 17:34:00,
2013-09-18 12:40:00,88.4,59.8,29.23,SSW,197,4.1,13.0,39,-99.99,,,-99.99,WSDL version 426,2013-09-18 17:40:00,
2013-09-18 12:45:00,88.5,59.7,29.23,South,178,6.5,10.5,38,-99.99,,,-99.99,WSDL version 426,2013-09-18 17:45:00,
2013-09-18 12:51:00,89.4,60.3,29.23,South,177,7.7,10.7,37,-99.99,,,-99.99,WSDL version 426,2013-09-18 17:51:00,
2013-09-18 12:56:00,89.9,59.1,29.23,SSW,193,6.9,10.7,35,-99.99,,,-99.99,WSDL version 426,2013-09-18 17:56:00,
2013-09-18 13:01:00,89.6,58.5,29.23,SSW,203,6.4,10.1,36,-99.99,,,-99.99,WSDL version 426,2013-09-18 18:01:00,
2013-09-18 13:06:00,89.7,58.9,29.23,South,180,6.9,10.3,36,-99.99,,,-99.99,WSDL version 426,2013-09-18 18:06:00,
2013-09-18 13:11:00,90.5,59.4,29.23,South,180,6.6,10.3,35,-99.99,,,-99.99,WSDL version 426,2013-09-18 18:11:00,
2013-09-18 13:17:00,91.7,59.1,29.23,South,170,5.2,13.2,35,-99.99,,,-99.99,WSDL version 426,2013-09-18 18:17:00,
2013-09-18 13:22:00,91.8,58.4,29.23,SW,219,6.7,10.7,32,-99.99,,,-99.99,WSDL version 426,2013-09-18 18:22:00,
2013-09-18 13:27:00,91.0,58.3,29.23,South,180,5.7,10.7,34,-99.99,,,-99.99,WSDL version 426,2013-09-18 18:27:00,
2013-09-18 13:32:00,91.7,58.9,29.21,SSW,203,7.2,10.5,33,-99.99,,,-99.99,WSDL version 426,2013-09-18 18:32:00,
2013-09-18 13:37:00,92.1,58.7,29.21,SE,146,9.1,12.3,32,-99.99,,,-99.99,WSDL version 426,2013-09-18 18:37:00,
2013-09-18 13:43:00,92.5,58.6,29.21,SSE,166,6.2,13.2,32,-99.99,,,-99.99,WSDL version 426,2013-09-18 18:43:00,
2013-09-18 13:49:00,93.1,58.1,29.21,South,169,8.9,13.2,31,-99.99,,,-99.99,WSDL version 426,2013-09-18 18:49:00,
2013-09-18 13:54:00,93.8,58.4,29.21,SSE,166,4.7,12.8,31,-99.99,,,-99.99,WSDL version 426,2013-09-18 18:54:00,
2013-09-18 14:00:00,93.6,57.1,29.21,South,178,8.7,13.2,29,-99.99,,,-99.99,WSDL version 426,2013-09-18 19:00:00,
2013-09-18 14:06:00,92.7,56.0,29.21,SSW,213,6.4,14.1,30,-99.99,,,-99.99,WSDL version 426,2013-09-18 19:06:00,
2013-09-18 14:12:00,92.3,56.4,29.21,SSW,205,6.3,14.1,30,-99.99,,,-99.99,WSDL version 426,2013-09-18 19:12:00,
2013-09-18 14:17:00,92.8,56.6,29.21,SSW,194,7.6,14.5,29,-99.99,,,-99.99,WSDL version 426,2013-09-18 19:17:00,
2013-09-18 14:23:00,91.9,56.0,29.21,SW,225,4.6,14.5,30,-99.99,,,-99.99,WSDL version 426,2013-09-18 19:23:00,
2013-09-18 14:28:00,91.3,56.0,29.21,SW,225,6.6,10.3,31,-99.99,,,-99.99,WSDL version 426,2013-09-18 19:28:00,
2013-09-18 14:33:00,91.8,56.1,29.21,South,183,7.2,11.0,30,-99.99,,,-99.99,WSDL version 426,2013-09-18 19:33:00,
2013-09-18 14:39:00,92.8,56.5,29.21,SSW,208,6.4,11.0,29,-99.99,,,-99.99,WSDL version 426,2013-09-18 19:39:00,
2013-09-18 14:44:00,92.8,56.0,29.21,SW,233,6.1,10.3,29,-99.99,,,-99.99,WSDL version 426,2013-09-18 19:44:00,
2013-09-18 14:49:00,93.1,56.1,29.21,SW,225,6.0,8.7,29,-99.99,,,-99.99,WSDL version 426,2013-09-18 19:49:00,
2013-09-18 14:54:00,93.9,56.1,29.21,South,183,7.3,13.2,28,-99.99,,,-99.99,WSDL version 426,2013-09-18 19:54:00,
2013-09-18 14:59:00,94.2,55.6,29.21,SW,225,7.9,13.2,27,-99.99,,,-99.99,WSDL version 426,2013-09-18 19:59:00,
2013-09-18 15:04:00,94.8,56.5,29.18,South,174,4.8,11.2,28,-99.99,,,-99.99,WSDL version 426,2013-09-18 20:04:00,
2013-09-18 15:10:00,95.5,56.4,29.18,SE,130,5.2,9.8,27,-99.99,,,-99.99,WSDL version 426,2013-09-18 20:10:00,
2013-09-18 15:15:00,95.2,56.3,29.18,SSE,149,4.6,12.8,28,-99.99,,,-99.99,WSDL version 426,2013-09-18 20:15:00,
2013-09-18 15:20:00,95.4,56.5,29.18,South,186,5.1,12.8,27,-99.99,,,-99.99,WSDL version 426,2013-09-18 20:20:00,
2013-09-18 15:25:00,95.3,56.1,29.18,SSE,149,7.2,10.7,27,-99.99,,,-99.99,WSDL version 426,2013-09-18 20:25:00,
2013-09-18 15:31:00,95.9,56.3,29.18,SSE,149,7.5,13.2,26,-99.99,,,-99.99,WSDL version 426,2013-09-18 20:31:00,
2013-09-18 15:37:00,96.1,56.4,29.18,SSW,195,6.9,13.2,26,-99.99,,,-99.99,WSDL version 426,2013-09-18 20:37:00,
2013-09-18 15:43:00,96.4,56.8,29.18,South,180,7.5,11.0,26,-99.99,,,-99.99,WSDL version 426,2013-09-18 20:43:00,
2013-09-18 15:49:00,96.7,56.2,29.15,SSE,160,8.9,13.0,26,-99.99,,,-99.99,WSDL version 426,2013-09-18 20:49:00,
2013-09-18 15:54:00,95.6,55.3,29.15,South,185,8.5,13.0,26,-99.99,,,-99.99,WSDL version 426,2013-09-18 20:54:00,
2013-09-18 16:00:00,95.8,56.3,29.15,South,172,7.9,15.9,26,-99.99,,,-99.99,WSDL version 426,2013-09-18 21:00:00,
2013-09-18 16:05:00,96.7,56.2,29.15,SSE,155,9.3,15.9,26,-99.99,,,-99.99,WSDL version 426,2013-09-18 21:05:00,
2013-09-18 16:10:00,97.3,56.5,29.15,South,174,7.6,16.8,25,-99.99,,,-99.99,WSDL version 426,2013-09-18 21:10:00,
2013-09-18 16:15:00,97.7,52.5,29.15,SSE,155,7.8,16.8,22,-99.99,,,-99.99,WSDL version 426,2013-09-18 21:15:00,
2013-09-18 16:20:00,97.7,52.9,29.15,South,169,7.9,14.8,23,-99.99,,,-99.99,WSDL version 426,2013-09-18 21:20:00,
2013-09-18 16:26:00,97.7,53.9,29.15,SE,143,6.7,15.2,23,-99.99,,,-99.99,WSDL version 426,2013-09-18 21:26:00,
2013-09-18 16:31:00,97.4,53.8,29.18,SE,141,5.7,15.2,24,-99.99,,,-99.99,WSDL version 426,2013-09-18 21:31:00,
2013-09-18 16:37:00,96.9,55.7,29.18,SE,135,6.6,12.8,26,-99.99,,,-99.99,WSDL version 426,2013-09-18 21:37:00,
2013-09-18 16:42:00,95.5,55.9,29.18,SE,143,3.4,12.8,27,-99.99,,,-99.99,WSDL version 426,2013-09-18 21:42:00,
2013-09-18 16:47:00,95.9,56.6,29.15,SSE,148,6.1,10.5,27,-99.99,,,-99.99,WSDL version 426,2013-09-18 21:47:00,
2013-09-18 16:52:00,97.0,56.9,29.15,SSE,160,5.7,10.5,26,-99.99,,,-99.99,WSDL version 426,2013-09-18 21:52:00,
2013-09-18 16:57:00,98.2,57.5,29.15,SE,127,4.8,9.6,26,-99.99,,,-99.99,WSDL version 426,2013-09-18 21:57:00,
2013-09-18 17:02:00,99.3,57.5,29.15,SE,135,4.1,8.7,25,-99.99,,,-99.99,WSDL version 426,2013-09-18 22:02:00,
2013-09-18 17:07:00,100.0,57.5,29.15,SSE,149,6.3,8.7,24,-99.99,,,-99.99,WSDL version 426,2013-09-18 22:07:00,
2013-09-18 17:12:00,100.5,56.6,29.15,SE,143,5.0,8.5,23,-99.99,,,-99.99,WSDL version 426,2013-09-18 22:12:00,
2013-09-18 17:17:00,100.6,56.3,29.15,SSE,167,3.7,7.8,23,-99.99,,,-99.99,WSDL version 426,2013-09-18 22:17:00,
2013-09-18 17:22:00,99.8,54.4,29.15,SSE,160,4.0,7.8,23,-99.99,,,-99.99,WSDL version 426,2013-09-18 22:22:00,
2013-09-18 17:27:00,100.8,54.0,29.15,SSE,160,4.4,8.5,21,-99.99,,,-99.99,WSDL version 426,2013-09-18 22:27:00,
2013-09-18 17:32:00,100.9,54.1,29.15,SSE,150,4.0,8.5,21,-99.99,,,-99.99,WSDL version 426,2013-09-18 22:32:00,
2013-09-18 17:37:00,100.2,53.8,29.15,SSE,168,5.0,7.8,22,-99.99,,,-99.99,WSDL version 426,2013-09-18 22:37:00,
2013-09-18 17:43:00,100.3,55.2,29.15,SE,128,4.3,8.5,23,-99.99,,,-99.99,WSDL version 426,2013-09-18 22:43:00,
2013-09-18 17:48:00,100.6,54.5,29.15,SE,145,4.9,7.8,21,-99.99,,,-99.99,WSDL version 426,2013-09-18 22:48:00,
2013-09-18 17:54:00,101.5,53.6,29.15,SE,143,4.9,7.4,20,-99.99,,,-99.99,WSDL version 426,2013-09-18 22:54:00,
2013-09-18 17:59:00,101.9,53.3,29.15,SSE,158,3.6,6.3,20,-99.99,,,-99.99,WSDL version 426,2013-09-18 22:59:00,
2013-09-18 18:04:00,101.5,52.4,29.12,SSE,150,4.3,7.4,20,-99.99,,,-99.99,WSDL version 426,2013-09-18 23:04:00,
2013-09-18 18:09:00,101.1,51.3,29.12,South,169,4.3,7.4,19,-99.99,,,-99.99,WSDL version 426,2013-09-18 23:09:00,
2013-09-18 18:14:00,100.7,52.0,29.12,SSE,158,4.9,8.1,20,-99.99,,,-99.99,WSDL version 426,2013-09-18 23:14:00,
2013-09-18 18:19:00,100.2,52.5,29.15,SE,145,3.8,8.1,20,-99.99,,,-99.99,WSDL version 426,2013-09-18 23:19:00,
2013-09-18 18:24:00,100.7,52.4,29.15,SE,135,3.7,6.3,20,-99.99,,,-99.99,WSDL version 426,2013-09-18 23:24:00,
2013-09-18 18:29:00,99.7,51.8,29.15,SE,133,3.8,7.8,20,-99.99,,,-99.99,WSDL version 426,2013-09-18 23:29:00,
2013-09-18 18:34:00,99.3,52.0,29.12,SE,129,3.4,7.8,21,-99.99,,,-99.99,WSDL version 426,2013-09-18 23:34:00,
2013-09-18 18:40:00,98.2,52.1,29.12,SE,127,4.6,7.2,22,-99.99,,,-99.99,WSDL version 426,2013-09-18 23:40:00,
2013-09-18 18:45:00,97.8,52.5,29.12,SE,129,4.7,7.2,22,-99.99,,,-99.99,WSDL version 426,2013-09-18 23:45:00,
2013-09-18 18:50:00,96.5,53.0,29.12,SE,129,4.3,8.5,24,-99.99,,,-99.99,WSDL version 426,2013-09-18 23:50:00,
2013-09-18 18:56:00,95.0,54.2,29.12,SSE,148,4.6,8.5,26,-99.99,,,-99.99,WSDL version 426,2013-09-18 23:56:00,
2013-09-18 19:01:00,94.3,54.8,29.12,SE,125,5.5,8.5,27,-99.99,,,-99.99,WSDL version 426,2013-09-19 00:01:00,
2013-09-18 19:06:00,93.0,54.6,29.12,ESE,118,5.8,8.5,28,-99.99,,,-99.99,WSDL version 426,2013-09-19 00:06:00,
2013-09-18 19:12:00,91.7,54.0,29.12,ESE,116,6.1,8.5,28,-99.99,,,-99.99,WSDL version 426,2013-09-19 00:12:00,
2013-09-18 19:18:00,90.8,54.6,29.12,SE,130,5.6,7.6,30,-99.99,,,-99.99,WSDL version 426,2013-09-19 00:18:00,
2013-09-18 19:23:00,90.2,54.6,29.12,SE,132,6.0,9.4,30,-99.99,,,-99.99,WSDL version 426,2013-09-19 00:23:00,
2013-09-18 19:28:00,89.6,54.7,29.12,SE,128,5.6,9.4,31,-99.99,,,-99.99,WSDL version 426,2013-09-19 00:28:00,
2013-09-18 19:33:00,89.1,55.3,29.12,SE,124,5.1,7.8,32,-99.99,,,-99.99,WSDL version 426,2013-09-19 00:33:00,
2013-09-18 19:38:00,88.6,55.0,29.12,SE,124,5.5,8.5,32,-99.99,,,-99.99,WSDL version 426,2013-09-19 00:38:00,
2013-09-18 19:43:00,88.3,54.9,29.12,ESE,113,5.8,8.5,33,-99.99,,,-99.99,WSDL version 426,2013-09-19 00:43:00,
2013-09-18 19:49:00,87.9,55.3,29.12,ESE,123,4.5,7.8,33,-99.99,,,-99.99,WSDL version 426,2013-09-19 00:49:00,
2013-09-18 19:54:00,87.4,55.3,29.12,SSE,163,2.5,7.8,34,-99.99,,,-99.99,WSDL version 426,2013-09-19 00:54:00,
2013-09-18 19:59:00,86.3,55.6,29.12,South,190,2.2,5.4,36,-99.99,,,-99.99,WSDL version 426,2013-09-19 00:59:00,
2013-09-18 20:05:00,85.8,56.9,29.12,South,183,2.8,4.9,38,-99.99,,,-99.99,WSDL version 426,2013-09-19 01:05:00,
2013-09-18 20:11:00,85.0,57.3,29.12,South,180,2.9,5.8,39,-99.99,,,-99.99,WSDL version 426,2013-09-19 01:11:00,
2013-09-18 20:16:00,84.9,57.4,29.12,ESE,120,2.5,5.8,40,-99.99,,,-99.99,WSDL version 426,2013-09-19 01:16:00,
2013-09-18 20:21:00,85.1,57.7,29.12,SE,128,4.5,6.0,39,-99.99,,,-99.99,WSDL version 426,2013-09-19 01:21:00,
2013-09-18 20:26:00,85.1,57.4,29.12,SE,125,6.5,9.8,39,-99.99,,,-99.99,WSDL version 426,2013-09-19 01:26:00,
2013-09-18 20:31:00,85.1,56.7,29.15,SE,138,8.0,12.1,38,-99.99,,,-99.99,WSDL version 426,2013-09-19 01:31:00,
2013-09-18 20:36:00,84.9,56.1,29.15,SE,127,7.4,12.3,37,-99.99,,,-99.99,WSDL version 426,2013-09-19 01:36:00,
2013-09-18 20:41:00,84.7,55.6,29.15,SE,127,7.0,12.3,37,-99.99,,,-99.99,WSDL version 426,2013-09-19 01:41:00,
2013-09-18 20:46:00,84.7,55.6,29.15,SE,135,6.9,10.1,37,-99.99,,,-99.99,WSDL version 426,2013-09-19 01:46:00,
2013-09-18 20:52:00,84.1,55.8,29.15,ESE,121,9.7,13.2,39,-99.99,,,-99.99,WSDL version 426,2013-09-19 01:52:00,
2013-09-18 20:57:00,83.3,56.1,29.15,SE,124,5.7,15.4,40,-99.99,,,-99.99,WSDL version 426,2013-09-19 01:57:00,
2013-09-18 21:02:00,82.7,56.0,29.15,SE,125,8.7,16.8,41,-99.99,,,-99.99,WSDL version 426,2013-09-19 02:02:00,
2013-09-18 21:08:00,82.2,56.2,29.15,SE,138,6.7,16.8,41,-99.99,,,-99.99,WSDL version 426,2013-09-19 02:08:00,
2013-09-18 21:13:00,82.1,56.1,29.15,SE,133,5.4,13.6,41,-99.99,,,-99.99,WSDL version 426,2013-09-19 02:13:00,
2013-09-18 21:19:00,81.9,55.9,29.15,SE,125,5.7,8.5,41,-99.99,,,-99.99,WSDL version 426,2013-09-19 02:19:00,
2013-09-18 21:24:00,81.5,55.6,29.15,SE,133,5.9,8.7,41,-99.99,,,-99.99,WSDL version 426,2013-09-19 02:24:00,
2013-09-18 21:29:00,81.4,55.4,29.15,ESE,122,5.6,8.7,41,-99.99,,,-99.99,WSDL version 426,2013-09-19 02:29:00,
2013-09-18 21:34:00,81.1,55.6,29.15,SE,138,3.6,8.1,42,-99.99,,,-99.99,WSDL version 426,2013-09-19 02:34:00,
2013-09-18 21:39:00,81.2,55.8,29.15,SE,138,4.0,8.1,42,-99.99,,,-99.99,WSDL version 426,2013-09-19 02:39:00,
2013-09-18 21:44:00,81.3,56.1,29.15,SE,135,3.8,6.3,42,-99.99,,,-99.99,WSDL version 426,2013-09-19 02:44:00,
2013-09-18 21:49:00,81.1,55.8,29.18,ESE,123,4.4,8.5,42,-99.99,,,-99.99,WSDL version 426,2013-09-19 02:49:00,
2013-09-18 21:54:00,80.5,56.1,29.18,SE,132,5.0,8.7,44,-99.99,,,-99.99,WSDL version 426,2013-09-19 02:54:00,
2013-09-18 21:59:00,80.0,56.2,29.18,SE,128,3.8,8.7,44,-99.99,,,-99.99,WSDL version 426,2013-09-19 02:59:00,
2013-09-18 22:04:00,79.5,56.1,29.15,SSE,155,4.0,8.7,45,-99.99,,,-99.99,WSDL version 426,2013-09-19 03:04:00,
2013-09-18 22:09:00,78.7,56.2,29.15,SE,130,3.1,7.4,47,-99.99,,,-99.99,WSDL version 426,2013-09-19 03:09:00,
2013-09-18 22:15:00,79.0,57.0,29.15,SE,130,3.1,5.6,47,-99.99,,,-99.99,WSDL version 426,2013-09-19 03:15:00,
2013-09-18 22:20:00,79.0,56.9,29.15,SE,124,3.6,6.0,46,-99.99,,,-99.99,WSDL version 426,2013-09-19 03:20:00,
2013-09-18 22:25:00,78.4,56.5,29.15,SE,129,3.2,6.5,48,-99.99,,,-99.99,WSDL version 426,2013-09-19 03:25:00,
2013-09-18 22:30:00,77.6,56.4,29.15,ESE,123,3.0,6.5,48,-99.99,,,-99.99,WSDL version 426,2013-09-19 03:30:00,
2013-09-18 22:35:00,77.5,57.2,29.15,SE,124,3.1,4.9,50,-99.99,,,-99.99,WSDL version 426,2013-09-19 03:35:00,
2013-09-18 22:40:00,77.9,57.8,29.15,SE,138,2.9,4.9,50,-99.99,,,-99.99,WSDL version 426,2013-09-19 03:40:00,
2013-09-18 22:45:00,77.8,57.1,29.15,SE,138,2.6,4.5,49,-99.99,,,-99.99,WSDL version 426,2013-09-19 03:45:00,
2013-09-18 22:50:00,77.1,57.0,29.15,SE,138,2.3,5.4,50,-99.99,,,-99.99,WSDL version 426,2013-09-19 03:50:00,
2013-09-18 22:55:00,76.6,57.1,29.15,South,170,2.5,5.4,52,-99.99,,,-99.99,WSDL version 426,2013-09-19 03:55:00,
2013-09-18 23:01:00,76.8,58.4,29.15,SSE,155,2.5,4.7,53,-99.99,,,-99.99,WSDL version 426,2013-09-19 04:01:00,
2013-09-18 23:02:00,76.8,58.4,29.15,SSE,148,2.6,4.7,53,-99.99,,,-99.99,WSDL version 426,2013-09-19 04:02:00,
2013-09-18 23:03:00,76.9,58.4,29.15,SSE,155,2.5,4.7,52,-99.99,,,-99.99,WSDL version 426,2013-09-19 04:03:00,
2013-09-18 23:04:00,76.9,58.3,29.15,SSE,155,2.9,3.8,52,-99.99,,,-99.99,WSDL version 426,2013-09-19 04:04:00,
2013-09-18 23:07:00,76.9,58.0,29.15,ESE,118,2.3,4.9,52,-99.99,,,-99.99,WSDL version 426,2013-09-19 04:07:00,
2013-09-18 23:10:00,76.6,57.7,29.15,SE,143,2.2,4.9,52,-99.99,,,-99.99,WSDL version 426,2013-09-19 04:10:00,
2013-09-18 23:15:00,76.2,57.4,29.15,SSE,163,1.7,3.8,53,-99.99,,,-99.99,WSDL version 426,2013-09-19 04:15:00,
2013-09-18 23:20:00,76.0,57.8,29.15,SSE,163,2.3,3.8,54,-99.99,,,-99.99,WSDL version 426,2013-09-19 04:20:00,
2013-09-18 23:25:00,76.5,59.1,29.15,SSE,163,1.2,3.4,55,-99.99,,,-99.99,WSDL version 426,2013-09-19 04:25:00,
2013-09-18 23:30:00,76.7,59.0,29.15,SSE,158,2.4,4.0,54,-99.99,,,-99.99,WSDL version 426,2013-09-19 04:30:00,
2013-09-18 23:35:00,76.3,58.8,29.15,SSE,149,3.6,5.4,55,-99.99,,,-99.99,WSDL version 426,2013-09-19 04:35:00,
2013-09-18 23:40:00,75.9,58.6,29.15,SSE,150,3.4,5.6,56,-99.99,,,-99.99,WSDL version 426,2013-09-19 04:40:00,
2013-09-18 23:45:00,76.0,59.7,29.15,SSE,155,2.7,5.6,57,-99.99,,,-99.99,WSDL version 426,2013-09-19 04:45:00,
2013-09-18 23:50:00,76.3,59.7,29.15,SE,130,2.2,5.4,56,-99.99,,,-99.99,WSDL version 426,2013-09-19 04:50:00,
2013-09-18 23:55:00,75.9,58.9,29.15,SE,124,1.4,4.3,56,-99.99,,,-99.99,WSDL version 426,2013-09-19 04:55:00,